| time (UTC) | temp F | wind direction | speed MPH | gust MPH | rain 1hr in | rain 24hr in | rain mn in | humidity % | barometer mb |
| 20260505124536 | 59 | 111 | 4.0 | 8.0 | 0.00 | 0.00 | 0.00 | 65 | 1007.6 |
| 20260505123026 | 58 | 99 | 2.0 | 4.0 | 0.00 | 0.00 | 0.00 | 68 | 1007.5 |
| 20260505121528 | 56 | 48 | 1.0 | 3.0 | 0.00 | 0.00 | 0.00 | 69 | 1007.3 |
| 20260505120032 | 55 | 48 | 1.0 | 3.0 | 0.00 | 0.00 | 0.00 | 72 | 1007.4 |
| 20260505114527 | 51 | 48 | 0.0 | 2.0 | 0.00 | 0.00 | 0.00 | 80 | 1007.6 |
| 20260505113028 | 48 | 48 | 1.0 | 3.0 | 0.00 | 0.00 | 0.00 | 85 | 1007.7 |
| 20260505111508 | 45 | 30 | 1.0 | 3.0 | 0.00 | 0.00 | 0.00 | 88 | 1007.7 |
| 20260505101515 | 43 | 360 | 0.0 | 3.0 | 0.00 | 0.00 | 0.00 | 88 | 1007.6 |
| 20260505100010 | 43 | 360 | 0.0 | 2.0 | 0.00 | 0.00 | 0.00 | 89 | 1007.6 |
| 20260505094506 | 43 | 360 | 0.0 | 1.0 | 0.00 | 0.00 | 0.00 | 88 | 1007.7 |
| 20260505093021 | 43 | 360 | 0.0 | 2.0 | 0.00 | 0.00 | 0.00 | 88 | 1007.4 |
| 20260505091507 | 44 | 360 | 0.0 | 2.0 | 0.00 | 0.00 | 0.00 | 87 | 1007.5 |
| 20260505090007 | 44 | 360 | 2.0 | 4.0 | 0.00 | 0.00 | 0.00 | 87 | 1007.6 |
| 20260505084508 | 44 | 360 | 1.0 | 3.0 | 0.00 | 0.00 | 0.00 | 86 | 1007.7 |
| 20260505083008 | 44 | 360 | 0.0 | 5.0 | 0.00 | 0.00 | 0.00 | 86 | 1007.7 |
| 20260505081528 | 45 | 360 | 0.0 | 3.0 | 0.00 | 0.00 | 0.00 | 86 | 1007.9 |
| 20260505080027 | 43 | 360 | 1.0 | 4.0 | 0.00 | 0.00 | 0.00 | 88 | 1007.9 |
| 20260505074527 | 44 | 360 | 1.0 | 3.0 | 0.00 | 0.00 | 0.00 | 87 | 1007.9 |
| 20260505073025 | 44 | 360 | 0.0 | 5.0 | 0.00 | 0.00 | 0.00 | 88 | 1007.8 |
| 20260505071526 | 43 | 360 | 0.0 | 5.0 | 0.00 | 0.00 | 0.00 | 87 | 1007.8 |
| 20260505070034 | 44 | 360 | 2.0 | 5.0 | 0.00 | 0.00 | 0.00 | 86 | 1007.9 |
| 20260505064525 | 44 | 360 | 1.0 | 3.0 | 0.00 | 0.00 | 0.00 | 86 | 1008.0 |
| 20260505063028 | 43 | 360 | 0.0 | 4.0 | 0.00 | 0.00 | 0.00 | 87 | 1008.1 |
| 20260505061534 | 43 | 360 | 0.0 | 4.0 | 0.00 | 0.00 | 0.00 | 87 | 1008.0 |
| 20260505060028 | 43 | 360 | 1.0 | 3.0 | 0.00 | 0.00 | 0.00 | 87 | 1007.9 |
| 20260505054526 | 43 | 360 | 1.0 | 4.0 | 0.00 | 0.00 | 0.00 | 87 | 1008.0 |
| 20260505053035 | 44 | 360 | 0.0 | 3.0 | 0.00 | 0.00 | 0.00 | 87 | 1007.8 |
| 20260505051546 | 44 | 360 | 1.0 | 2.0 | 0.00 | 0.00 | 0.00 | 85 | 1007.7 |
| 20260505041532 | 46 | 360 | 0.0 | 2.0 | 0.00 | 0.00 | 0.00 | 84 | 1007.5 |
| 20260505040027 | 47 | 360 | 0.0 | 2.0 | 0.00 | 0.00 | 0.00 | 78 | 1007.3 |
| 20260505034530 | 48 | 360 | 0.0 | 2.0 | 0.00 | 0.00 | 0.00 | 78 | 1007.2 |
| 20260505033029 | 48 | 360 | 0.0 | 2.0 | 0.00 | 0.00 | 0.00 | 78 | 1006.9 |
| 20260505031529 | 49 | 360 | 0.0 | 3.0 | 0.00 | 0.00 | 0.00 | 77 | 1006.9 |
| 20260505030030 | 49 | 360 | 0.0 | 2.0 | 0.00 | 0.00 | 0.00 | 75 | 1006.8 |
| 20260505024527 | 50 | 360 | 0.0 | 2.0 | 0.00 | 0.00 | 0.00 | 75 | 1006.9 |
| 20260505023028 | 51 | 360 | 1.0 | 4.0 | 0.00 | 0.00 | 0.00 | 73 | 1007.1 |
| 20260505021505 | 52 | 360 | 1.0 | 3.0 | 0.00 | 0.00 | 0.00 | 72 | 1007.1 |
| 20260505020008 | 53 | 360 | 0.0 | 3.0 | 0.00 | 0.00 | 0.00 | 66 | 1007.1 |
| 20260505014504 | 54 | 360 | 1.0 | 2.0 | 0.00 | 0.00 | 0.00 | 65 | 1006.9 |
| 20260505013004 | 54 | 360 | 1.0 | 3.0 | 0.00 | 0.00 | 0.00 | 66 | 1006.6 |
| 20260505011504 | 55 | 5 | 0.0 | 3.0 | 0.00 | 0.00 | 0.00 | 62 | 1006.5 |
| 20260505010005 | 56 | 5 | 2.0 | 3.0 | 0.00 | 0.00 | 0.00 | 64 | 1006.2 |
| 20260505004508 | 57 | 360 | 0.0 | 2.0 | 0.00 | 0.00 | 0.00 | 58 | 1006.0 |
| 20260505003017 | 59 | 228 | 0.0 | 2.0 | 0.00 | 0.00 | 0.00 | 55 | 1005.7 |
| 20260505001506 | 60 | 228 | 0.0 | 3.0 | 0.00 | 0.00 | 0.00 | 52 | 1005.5 |
| 20260505000006 | 63 | 224 | 0.0 | 1.0 | 0.00 | 0.00 | 0.00 | 48 | 1005.3 |
| 20260504234506 | 64 | 224 | 1.0 | 2.0 | 0.00 | 0.00 | 0.00 | 45 | 1005.0 |
| 20260504233007 | 65 | 225 | 0.0 | 2.0 | 0.00 | 0.00 | 0.00 | 45 | 1004.8 |
| 20260504231506 | 65 | 225 | 1.0 | 4.0 | 0.00 | 0.00 | 0.00 | 43 | 1004.8 |
| 20260504230004 | 66 | 244 | 2.0 | 10.0 | 0.00 | 0.00 | 0.00 | 42 | 1004.7 |
| 20260504224507 | 66 | 228 | 2.0 | 8.0 | 0.00 | 0.00 | 0.00 | 43 | 1004.6 |
| 20260504223005 | 66 | 234 | 3.0 | 8.0 | 0.00 | 0.00 | 0.00 | 41 | 1004.3 |
| 20260504221510 | 66 | 159 | 3.0 | 10.0 | 0.00 | 0.00 | 0.00 | 43 | 1004.4 |
| 20260504220006 | 66 | 277 | 5.0 | 13.0 | 0.00 | 0.00 | 0.00 | 42 | 1004.4 |
| 20260504214507 | 65 | 193 | 3.0 | 6.0 | 0.00 | 0.00 | 0.00 | 44 | 1004.6 |
| 20260504213008 | 65 | 149 | 3.0 | 6.0 | 0.00 | 0.00 | 0.00 | 47 | 1004.5 |
| 20260504211509 | 65 | 128 | 3.0 | 8.0 | 0.00 | 0.00 | 0.00 | 47 | 1004.5 |
| 20260504210007 | 65 | 228 | 3.0 | 12.0 | 0.00 | 0.00 | 0.00 | 46 | 1004.6 |
| 20260504204510 | 64 | 169 | 2.0 | 9.0 | 0.00 | 0.00 | 0.00 | 48 | 1004.6 |
| 20260504203019 | 62 | 156 | 1.0 | 6.0 | 0.00 | 0.00 | 0.00 | 52 | 1004.6 |
| 20260504201510 | 62 | 165 | 3.0 | 9.0 | 0.00 | 0.00 | 0.00 | 54 | 1004.7 |
| 20260504200011 | 62 | 161 | 2.0 | 6.0 | 0.00 | 0.00 | 0.00 | 53 | 1004.8 |
| 20260504194514 | 63 | 283 | 5.0 | 16.0 | 0.00 | 0.00 | 0.00 | 52 | 1004.9 |
| 20260504193017 | 61 | 307 | 3.0 | 6.0 | 0.00 | 0.00 | 0.00 | 55 | 1005.2 |
| 20260504191522 | 59 | 165 | 2.0 | 6.0 | 0.00 | 0.00 | 0.00 | 59 | 1005.3 |
| 20260504190011 | 58 | 159 | 3.0 | 7.0 | 0.00 | 0.00 | 0.00 | 59 | 1005.4 |
| 20260504184514 | 57 | 168 | 3.0 | 8.0 | 0.00 | 0.00 | 0.00 | 61 | 1005.6 |
| 20260504183011 | 57 | 159 | 4.0 | 7.0 | 0.00 | 0.00 | 0.00 | 62 | 1005.7 |
| 20260504181514 | 57 | 155 | 4.0 | 7.0 | 0.00 | 0.00 | 0.00 | 63 | 1005.8 |
| 20260504180013 | 56 | 167 | 3.0 | 6.0 | 0.00 | 0.00 | 0.00 | 65 | 1006.0 |
| 20260504174512 | 56 | 269 | 5.0 | 9.0 | 0.00 | 0.00 | 0.00 | 63 | 1006.2 |
| 20260504173015 | 56 | 155 | 2.0 | 3.0 | 0.00 | 0.00 | 0.00 | 63 | 1006.1 |
| 20260504171508 | 56 | 278 | 1.0 | 6.0 | 0.00 | 0.00 | 0.00 | 66 | 1006.1 |